FW7144 Weather Reports


time (UTC)temp
F
wind
direction
speed
knots
gust
knots
rain 1hr
in
rain 24hr
in
rain mn
in
humidity
%
barometer
mb
20260506073205 49 85 0.0 2.6 0.00 0.00 0.00 49 1019.7
20260506072606 51 90 0.9 1.7 0.00 0.00 0.00 46 1019.8
20260506072018 53 31 0.0 2.6 0.00 0.00 0.00 44 1019.7
20260506071406 54 124 0.0 5.2 0.00 0.00 0.00 44 1019.7
20260506070805 55 101 2.6 6.1 0.00 0.00 0.00 39 1019.7
20260506070205 53 112 1.7 2.6 0.00 0.00 0.00 44 1019.8
20260506062005 52 49 0.0 2.6 0.00 0.00 0.00 45 1019.9
20260506061430 53 64 0.0 2.6 0.00 0.00 0.00 43 1019.8
20260506060830 54 49 0.0 1.7 0.00 0.00 0.00 42 1019.8
20260506060205 55 114 0.0 2.6 0.00 0.00 0.00 40 1019.8
20260506051405 58 96 3.5 5.2 0.00 0.00 0.00 37 1019.8
20260506050805 59 73 2.6 5.2 0.00 0.00 0.00 34 1019.7
20260506050230 58 78 2.6 5.2 0.00 0.00 0.00 35 1019.7
20260506045005 57 82 2.6 4.3 0.00 0.00 0.00 36 1019.7
20260506044405 57 70 1.7 5.2 0.00 0.00 0.00 37 1019.7
20260506043830 58 80 0.0 6.1 0.00 0.00 0.00 35 1019.6
20260506043205 59 85 2.6 5.2 0.00 0.00 0.00 36 1019.5
20260506042617 59 70 0.0 1.7 0.00 0.00 0.00 39 1019.4
20260506042005 61 100 0.0 5.2 0.00 0.00 0.00 35 1019.4
20260506041405 62 76 0.0 2.6 0.00 0.00 0.00 34 1019.4
20260506040805 63 91 0.0 2.6 0.00 0.00 0.00 37 1019.3
20260506040205 63 109 0.0 0.0 0.00 0.00 0.00 36 1019.2
20260506035605 63 123 0.0 1.7 0.00 0.00 0.00 35 1019.2
20260506035005 62 81 0.0 0.0 0.00 0.00 0.00 36 1019.1
20260506034405 62 194 0.0 0.0 0.00 0.00 0.00 38 1019.0
20260506033805 63 79 0.0 0.0 0.00 0.00 0.00 33 1018.9
20260506033205 66 79 0.0 2.6 0.00 0.00 0.00 33 1018.9
20260506032605 69 144 0.0 2.6 0.00 0.00 0.00 29 1018.8
20260506032030 69 160 0.0 1.7 0.00 0.00 0.00 29 1018.7
20260506031405 70 191 0.0 1.7 0.00 0.00 0.00 27 1018.6
20260506030805 70 187 0.0 4.3 0.00 0.00 0.00 26 1018.6
20260506030205 66 249 0.0 0.0 0.00 0.00 0.00 29 1018.6
20260506025605 66 54 0.0 2.6 0.00 0.00 0.00 33 1018.5
20260506025005 68 30 0.0 3.5 0.00 0.00 0.00 27 1018.4
20260506024443 68 42 0.0 3.5 0.00 0.00 0.00 26 1018.3
20260506023805 69 58 0.0 6.1 0.00 0.00 0.00 24 1018.3
20260506023205 70 56 1.7 4.3 0.00 0.00 0.00 25 1018.2
20260506022605 70 41 1.7 5.2 0.00 0.00 0.00 24 1018.1
20260506022006 71 59 0.9 4.3 0.00 0.00 0.00 24 1018.1
20260506021405 73 87 1.7 6.1 0.00 0.00 0.00 23 1018.0
20260506020805 76 64 5.2 7.8 0.00 0.00 0.00 22 1017.9
20260506020205 75 87 3.5 7.0 0.00 0.00 0.00 22 1017.8
20260506015605 75 84 3.5 5.2 0.00 0.00 0.00 21 1017.7
20260506015030 74 89 1.7 5.2 0.00 0.00 0.00 22 1017.7
20260506014405 76 83 2.6 6.1 0.00 0.00 0.00 21 1017.6
20260506013805 77 77 4.3 7.0 0.00 0.00 0.00 20 1017.5
20260506013205 78 81 5.2 7.0 0.00 0.00 0.00 19 1017.4
20260506012605 78 86 4.3 7.8 0.00 0.00 0.00 19 1017.3
20260506012005 77 77 0.0 7.0 0.00 0.00 0.00 22 1017.3
20260506011430 78 71 1.7 7.0 0.00 0.00 0.00 20 1017.3
20260506010805 79 71 0.9 7.0 0.00 0.00 0.00 20 1017.2
20260506010205 80 79 1.7 5.2 0.00 0.00 0.00 19 1017.2
20260506005605 82 59 1.7 7.0 0.00 0.00 0.00 18 1017.1
20260506005006 83 62 2.6 7.8 0.00 0.00 0.00 15 1017.1
20260506004430 84 105 3.5 8.7 0.00 0.00 0.00 15 1017.1
20260506003805 85 84 3.5 7.8 0.00 0.00 0.00 14 1017.1
20260506003205 87 0 1.7 7.8 0.00 0.00 0.00 7 1017.1
20260506002605 87 317 1.7 3.5 0.00 0.00 0.00 8 1017.1
20260506002005 88 8 0.0 9.6 0.00 0.00 0.00 8 1017.0
20260506001405 88 78 0.0 8.7 0.00 0.00 0.00 9 1017.0
20260506000805 88 47 0.0 7.0 0.00 0.00 0.00 9 1017.0
20260506000205 88 315 1.7 7.0 0.00 0.00 0.00 9 1016.9
20260505235605 88 18 1.7 7.8 0.00 0.00 0.00 8 1016.9
20260505235005 89 354 0.0 7.0 0.00 0.00 0.00 9 1016.9
20260505234430 89 333 1.7 9.6 0.00 0.00 0.00 10 1016.9
20260505233805 90 70 1.7 9.6 0.00 0.00 0.00 9 1016.9
20260505233206 90 17 1.7 12.2 0.00 0.00 0.00 9 1016.9
20260505232605 90 351 1.7 12.2 0.00 0.00 0.00 9 1016.9
20260505232030 90 336 2.6 6.1 0.00 0.00 0.00 10 1016.8
20260505231405 91 76 0.0 10.4 0.00 0.00 0.00 10 1016.9
20260505230805 90 9 1.7 10.4 0.00 0.00 0.00 10 1016.9
20260505230205 90 314 3.5 11.3 0.00 0.00 0.00 10 1016.9
20260505225605 90 344 1.7 7.8 0.00 0.00 0.00 11 1016.9
20260505225005 90 318 1.7 11.3 0.00 0.00 0.00 12 1016.9
20260505224405 91 158 0.0 7.0 0.00 0.00 0.00 10 1017.0
20260505223805 90 29 1.7 11.3 0.00 0.00 0.00 9 1017.1
20260505223205 91 335 0.0 8.7 0.00 0.00 0.00 13 1017.3
20260505222630 91 113 0.0 12.2 0.00 0.00 0.00 11 1017.3
20260505222005 91 19 0.0 11.3 0.00 0.00 0.00 14 1017.3
20260505221508 91 354 3.5 12.2 0.00 0.00 0.00 10 1017.3
20260505220830 91 334 0.0 13.9 0.00 0.00 0.00 11 1017.3
20260505220206 90 7 0.9 9.6 0.00 0.00 0.00 13 1017.5
20260505215605 90 314 2.6 9.6 0.00 0.00 0.00 16 1017.4
20260505215005 89 247 2.6 8.7 0.00 0.00 0.00 15 1017.5
20260505214405 90 354 2.6 11.3 0.00 0.00 0.00 14 1017.6
20260505213817 89 308 4.3 13.9 0.00 0.00 0.00 14 1017.6
20260505213205 89 343 4.3 16.5 0.00 0.00 0.00 14 1017.7
20260505212605 89 12 3.5 11.3 0.00 0.00 0.00 16 1017.9
20260505212005 90 262 3.5 10.4 0.00 0.00 0.00 16 1018.0
20260505211405 89 304 2.6 11.3 0.00 0.00 0.00 17 1018.1
20260505210830 89 16 0.0 12.2 0.00 0.00 0.00 15 1018.2
20260505210205 90 322 1.7 13.0 0.00 0.00 0.00 14 1018.2
20260505205605 90 45 2.6 7.8 0.00 0.00 0.00 15 1018.4
20260505205005 89 341 0.9 8.7 0.00 0.00 0.00 17 1018.4
20260505204405 89 64 0.0 12.2 0.00 0.00 0.00 15 1018.5
20260505203805 89 19 1.7 10.4 0.00 0.00 0.00 16 1018.6
20260505203205 90 339 1.7 11.3 0.00 0.00 0.00 17 1018.6
20260505202605 90 186 0.9 7.8 0.00 0.00 0.00 17 1018.8
20260505202005 89 22 0.0 11.3 0.00 0.00 0.00 19 1018.9
20260505201405 89 346 2.6 10.4 0.00 0.00 0.00 18 1018.8
20260505200805 89 346 2.6 13.9 0.00 0.00 0.00 19 1019.0
20260505200217 88 310 5.2 14.8 0.00 0.00 0.00 19 1019.0
20260505195605 88 302 2.6 9.6 0.00 0.00 0.00 20 1019.2
20260505195006 88 334 1.7 12.2 0.00 0.00 0.00 17 1019.2
20260505194442 87 318 1.7 12.2 0.00 0.00 0.00 19 1019.3
20260505193805 87 2 1.7 13.0 0.00 0.00 0.00 19 1019.3
20260505193207 88 251 1.7 13.9 0.00 0.00 0.00 20 1019.4
20260505192605 88 284 0.0 9.6 0.00 0.00 0.00 21 1019.3
20260505192005 88 251 1.7 11.3 0.00 0.00 0.00 22 1019.4
20260505191405 87 324 2.6 11.3 0.00 0.00 0.00 22 1019.5
20260505190805 87 338 0.0 7.8 0.00 0.00 0.00 26 1019.7
20260505190205 86 317 1.7 10.4 0.00 0.00 0.00 26 1019.7
20260505185605 85 213 3.5 9.6 0.00 0.00 0.00 24 1019.7
20260505185005 85 293 0.0 10.4 0.00 0.00 0.00 26 1019.9
20260505184405 84 314 2.6 14.8 0.00 0.00 0.00 28 1019.9
20260505183805 85 330 1.7 13.9 0.00 0.00 0.00 28 1019.9
20260505183205 84 301 2.6 7.8 0.00 0.00 0.00 27 1020.0
20260505182605 85 337 1.7 9.6 0.00 0.00 0.00 28 1020.1
20260505182005 85 348 1.7 13.9 0.00 0.00 0.00 23 1020.1
20260505181405 84 0 2.6 9.6 0.00 0.00 0.00 24 1020.2
20260505180830 83 299 3.5 11.3 0.00 0.00 0.00 28 1020.3
20260505180205 84 268 2.6 13.9 0.00 0.00 0.00 26 1020.3
20260505175605 83 312 1.7 14.8 0.00 0.00 0.00 27 1020.4
20260505175005 83 305 2.6 10.4 0.00 0.00 0.00 26 1020.4
20260505174405 82 273 1.7 9.6 0.00 0.00 0.00 28 1020.5
20260505173805 82 271 3.5 9.6 0.00 0.00 0.00 26 1020.6
20260505173205 82 328 2.6 10.4 0.00 0.00 0.00 33 1020.5
20260505172605 82 302 1.7 7.0 0.00 0.00 0.00 34 1020.6
20260505172005 81 188 0.0 7.8 0.00 0.00 0.00 31 1020.6
20260505171405 80 266 0.0 7.0 0.00 0.00 0.00 33 1020.6
20260505170805 79 274 0.0 10.4 0.00 0.00 0.00 35 1020.8
20260505170205 78 120 0.0 7.8 0.00 0.00 0.00 38 1020.7
20260505165605 78 268 0.0 11.3 0.00 0.00 0.00 40 1020.8
20260505165005 77 274 1.7 7.8 0.00 0.00 0.00 41 1020.8
20260505164405 77 283 0.0 8.7 0.00 0.00 0.00 41 1020.9
20260505163830 77 277 0.0 7.8 0.00 0.00 0.00 42 1020.9
20260505162605 75 2 3.5 9.6 0.00 0.00 0.00 43 1021.0
20260505162030 75 268 1.7 7.8 0.00 0.00 0.00 46 1021.0
20260505161405 74 262 3.5 7.0 0.00 0.00 0.00 45 1021.1
20260505160805 75 250 3.5 7.8 0.00 0.00 0.00 45 1021.0
20260505160230 74 266 2.6 10.4 0.00 0.00 0.00 47 1021.0
20260505153205 72 254 2.6 7.0 0.00 0.00 0.00 51 1021.2
20260505152606 71 297 1.7 7.8 0.00 0.00 0.00 50 1021.2
20260505152005 70 290 0.0 6.1 0.00 0.00 0.00 51 1021.1
20260505151405 70 266 1.7 4.3 0.00 0.00 0.00 51 1021.2
20260505150805 70 296 0.0 6.1 0.00 0.00 0.00 53 1021.3
20260505150205 71 283 0.0 0.0 0.00 0.00 0.00 52 1021.2
20260505140205 62 65 0.0 1.7 0.00 0.00 0.00 60 1021.3
20260505130205 52 99 1.7 3.5 0.00 0.00 0.00 74 1021.3
20260505125005 51 106 3.5 6.1 0.00 0.00 0.00 78 1021.2
20260505124405 48 141 1.7 5.2 0.00 0.00 0.00 81 1021.0
20260505123805 46 112 1.7 3.5 0.00 0.00 0.00 82 1021.0
20260505123205 45 134 1.7 2.6 0.00 0.00 0.00 81 1020.9
20260505122605 46 84 0.9 3.5 0.00 0.00 0.00 81 1020.9
20260505122005 46 98 1.7 2.6 0.00 0.00 0.00 81 1020.9
20260505121405 45 100 0.0 2.6 0.00 0.00 0.00 81 1020.8
20260505120830 46 58 0.0 3.5 0.00 0.00 0.00 80 1020.7
20260505120205 46 114 0.0 4.3 0.00 0.00 0.00 79 1020.7
20260505115605 47 98 2.6 5.2 0.00 0.00 0.00 78 1020.7
20260505115005 47 87 2.6 3.5 0.00 0.00 0.00 80 1020.6
20260505114405 46 105 2.6 4.3 0.00 0.00 0.00 80 1020.6
20260505113805 46 105 2.6 2.6 0.00 0.00 0.00 80 1020.7
20260505113205 46 129 0.0 2.6 0.00 0.00 0.00 79 1020.5
20260505112605 47 91 0.0 5.2 0.00 0.00 0.00 79 1020.5
20260505112042 47 97 1.7 4.3 0.00 0.00 0.00 80 1020.5
20260505111442 47 111 2.6 4.3 0.00 0.00 0.00 81 1020.4
20260505110842 46 140 0.0 3.5 0.00 0.00 0.00 81 1020.4
20260505110205 46 120 2.6 3.5 0.00 0.00 0.00 81 1020.4
20260505102029 48 57 2.6 4.3 0.00 0.00 0.00 77 1020.4
20260505101405 49 126 2.6 4.3 0.00 0.00 0.00 78 1020.3
20260505100805 49 88 2.6 3.5 0.00 0.00 0.00 78 1020.3
20260505100205 48 92 0.0 2.6 0.00 0.00 0.00 76 1020.2
20260505095605 49 121 0.9 4.3 0.00 0.00 0.00 75 1020.3
20260505095030 49 108 2.6 4.3 0.00 0.00 0.00 77 1020.2
20260505094405 48 91 2.6 2.6 0.00 0.00 0.00 79 1020.3
20260505093805 47 90 0.0 2.6 0.00 0.00 0.00 79 1020.3
20260505093205 48 127 0.0 4.3 0.00 0.00 0.00 79 1020.3
20260505092605 47 136 1.7 2.6 0.00 0.00 0.00 80 1020.4
20260505092017 47 120 0.0 1.7 0.00 0.00 0.00 80 1020.4
20260505091442 47 94 0.0 2.6 0.00 0.00 0.00 80 1020.4
20260505090805 47 80 1.7 3.5 0.00 0.00 0.00 80 1020.4
20260505090205 46 75 1.7 3.5 0.00 0.00 0.00 80 1020.3
20260505085605 45 93 2.6 1.7 0.00 0.00 0.00 79 1020.3
20260505085005 46 96 0.0 2.6 0.00 0.00 0.00 77 1020.2
20260505084405 48 36 0.0 1.7 0.00 0.00 0.00 76 1020.2
20260505083830 49 126 1.7 3.5 0.00 0.00 0.00 79 1020.2
20260505083205 48 111 0.0 1.7 0.00 0.00 0.00 79 1020.2
20260505082605 48 111 0.0 2.6 0.00 0.00 0.00 79 1020.2
20260505082005 47 95 0.0 2.6 0.00 0.00 0.00 78 1020.2
20260505081405 47 107 1.7 2.6 0.00 0.00 0.00 76 1020.2
20260505080805 48 86 0.0 2.6 0.00 0.00 0.00 76 1020.2
20260505080205 48 87 0.9 1.7 0.00 0.00 0.00 76 1020.2
20260505075605 49 93 0.0 2.6 0.00 0.00 0.00 73 1020.2
20260505075042 49 84 0.0 2.6 0.00 0.00 0.00 73 1020.2